[[{"header":{"parameterUnit":"m.s-1","parameterCategory":1,"la1":30.2991,"la2":30.254,"lo1":-89.0895,"lo2":-89.0444,"dy":0.0017,"dx":0.0017,"nx":28,"ny":28,"refTime":"2025-01-16T09:00:00:Z","depth":0,"parameterNumber":2,"parameterNumberName":"U-component_of_WINDS"},"data":[0,0,0,0,0,0,0,0,0,0,0,0,0,0,0,0,0,0,0,0,0,0,0,0,0,0,0,0,0,0,0,0,0,0,0,0,0,0,0,0,0,0,0,0,0,0,0,0,0,0,0,0,0,0,0,0,0,0,-1.9103,-1.9103,0,-1.9085,-1.9085,-1.9085,-1.9067,-1.9067,-1.9066,-1.9066,-1.9047,-1.9046,-1.9046,0,0,0,0,0,0,0,0,0,0,0,0,0,-1.9119,-1.9119,-1.9103,-1.9102,-1.9102,-1.9085,-1.9085,-1.9084,-1.9067,-1.9067,-1.9066,-1.9066,-1.9047,-1.9046,-1.9046,0,0,0,0,0,0,0,0,0,0,0,0,0,-1.9107,-1.9118,-1.9103,-1.9091,-1.909,-1.9085,-1.9085,-1.9084,-1.9067,-1.9067,-1.9066,-1.9066,-1.9047,-1.9046,-1.9046,-1.905,0,0,-1.9044,-1.9044,0,0,0,0,0,0,0,0,-1.9108,-1.9107,-1.9093,-1.9092,-1.9091,-1.9078,-1.9083,-1.9073,-1.9067,-1.9076,-1.9066,-1.9066,-1.9057,-1.9056,-1.9053,-1.9049,-1.9048,-1.9044,-1.9044,-1.9044,-1.9044,0,0,0,0,0,0,0,-1.9109,-1.9108,-1.9096,-1.9093,-1.9092,-1.9086,-1.9084,-1.9081,-1.9069,-1.9075,-1.9074,-1.9072,-1.9056,-1.9054,-1.9053,-1.9048,-1.9044,-1.9044,-1.9044,-1.9044,-1.9044,-1.9044,0,0,0,0,0,0,-1.9112,-1.9108,-1.9096,-1.9095,-1.9099,-1.9086,-1.9084,-1.9082,-1.9069,-1.9066,-1.9072,-1.9071,-1.9055,-1.9053,-1.9052,-1.9054,-1.9044,-1.9043,-1.9043,-1.9043,-1.9044,-1.9044,0,0,0,0,0,0,-1.9112,-1.9111,-1.9097,-1.9101,-1.9099,-1.9086,-1.9085,-1.9082,-1.9079,-1.9066,-1.9064,-1.9072,-1.9054,-1.9052,-1.905,-1.9053,-1.9043,-1.9043,-1.9043,-1.9043,-1.9044,-1.906,0,0,0,0,0,0,-1.9113,-1.9111,-1.9113,-1.9102,-1.9099,-1.9096,-1.9085,-1.9082,-1.9079,-1.9077,-1.9066,-1.9063,-1.9054,-1.9051,-1.905,-1.9053,-1.9042,-1.9043,-1.9043,-1.9044,-1.9059,-1.9061,-1.9063,0,0,0,0,0,-1.9113,-1.9119,-1.9113,-1.9112,-1.9102,-1.9097,-1.9095,-1.9085,-1.9079,-1.9081,-1.9072,-1.9064,-1.9053,-1.9051,-1.9049,-1.9052,-1.9042,-1.9043,-1.9044,-1.9058,-1.9061,-1.9062,0,0,0,0,0,0,-1.9131,-1.9117,-1.9111,-1.9113,-1.9106,-1.9094,-1.9095,-1.9088,-1.9082,-1.9081,-1.9068,-1.9065,-1.9064,-1.9058,-1.9055,-1.9054,-1.9046,-1.9047,-1.9058,-1.906,-1.9062,-1.9063,-1.9042,0,0,0,0,0,-1.9135,-1.9133,-1.9121,-1.9123,-1.912,-1.9108,-1.9106,-1.9098,-1.9091,-1.9088,-1.9079,-1.9071,-1.9066,-1.9063,-1.9057,-1.9058,-1.9054,-1.9059,-1.9061,-1.9062,-1.9062,-1.9061,-1.9062,-1.9046,-1.9046,-1.9046,0,0,-1.9144,-1.9136,-1.9135,-1.9127,-1.9121,-1.9118,-1.9106,-1.9104,-1.9101,-1.9087,-1.9084,-1.9077,-1.9067,-1.9066,-1.9065,-1.9061,-1.9066,-1.9063,-1.9064,-1.9064,-1.9061,-1.9063,-1.9064,-1.9047,-1.9046,-1.9046,0,0,-1.9157,-1.9152,-1.9153,-1.9147,-1.9137,-1.9129,-1.9129,-1.9118,-1.9113,-1.911,-1.9098,-1.9094,-1.9086,-1.9079,-1.9075,-1.9084,-1.9075,-1.9082,-1.9091,-1.9089,-1.9091,-1.9092,-1.9094,-1.9095,-1.9083,-1.9083,-1.9083,0,-1.9169,-1.9165,-1.9154,-1.9152,-1.9148,-1.9135,-1.9135,-1.9129,-1.9119,-1.9116,-1.9111,-1.9099,-1.9092,-1.9088,-1.909,-1.9087,-1.9086,-1.9084,-1.9091,-1.9092,-1.9093,-1.9095,-1.9096,-1.9084,-1.9084,-1.9083,-1.9083,0,-1.9179,-1.9176,-1.9178,-1.9168,-1.9164,-1.9163,-1.9151,-1.9148,-1.914,-1.9132,-1.9128,-1.9118,-1.911,-1.9109,-1.9101,-1.9103,-1.9101,-1.9094,-1.9086,-1.9096,-1.9097,-1.9098,-1.9085,-1.9085,-1.9084,-1.9084,0,0,-1.9204,-1.9187,-1.9188,-1.9182,-1.917,-1.9168,-1.9165,-1.9157,-1.9154,-1.9147,-1.9144,-1.9136,-1.913,-1.9124,-1.9116,-1.9115,-1.9121,-1.9108,-1.9107,-1.911,-1.912,-1.9125,-1.9126,-1.9115,-1.9115,-1.9115,-1.9121,0,-1.9215,-1.9211,-1.92,-1.9199,-1.9195,-1.9182,-1.918,-1.9172,-1.9164,-1.9158,-1.9149,-1.9144,-1.9136,-1.9132,-1.913,-1.912,-1.9123,-1.912,-1.9111,-1.9111,-1.9113,-1.9127,-1.9132,-1.9138,-1.9121,-1.9121,-1.9122,0,-1.9228,-1.9221,-1.9219,-1.9206,-1.9204,-1.9203,-1.9193,-1.9189,-1.9179,-1.9173,-1.9166,-1.9157,-1.9152,-1.9145,-1.9138,-1.9136,-1.9131,-1.9126,-1.9126,-1.9124,-1.9116,-1.9125,-1.914,-1.9141,-1.9123,-1.9122,-1.9122,0,-1.9244,-1.9235,-1.9233,-1.9228,-1.9214,-1.9212,-1.9206,-1.9195,-1.9191,-1.9182,-1.9179,-1.917,-1.9165,-1.9158,-1.9146,-1.9142,-1.9139,-1.9131,-1.9133,-1.9133,-1.9133,-1.9133,-1.9147,-1.9131,-1.9131,-1.9131,-1.9131,0,-1.9257,-1.9257,-1.924,-1.9238,-1.9236,-1.9223,-1.9222,-1.9214,-1.9204,-1.92,-1.9188,-1.9184,-1.9168,-1.9162,-1.9152,-1.9146,-1.9145,-1.9139,-1.9136,-1.914,-1.914,-1.9136,-1.9135,-1.9131,-1.9131,-1.9131,-1.9131,0,-1.9276,-1.9265,-1.9261,-1.9247,-1.9243,-1.9242,-1.923,-1.9227,-1.9218,-1.9212,-1.921,-1.9196,-1.9187,-1.9174,-1.9162,-1.9156,-1.9151,-1.9147,-1.9155,-1.9153,-1.9155,-1.9155,-1.9167,-1.9167,-1.9152,-1.9152,-1.9152,0,-1.9285,-1.9284,-1.9269,-1.9266,-1.926,-1.9254,-1.9249,-1.9236,-1.9231,-1.9219,-1.9217,-1.9208,-1.92,-1.9187,-1.9175,-1.9165,-1.916,-1.9165,-1.9159,-1.9162,-1.9159,-1.9159,-1.9158,-1.9166,-1.9166,-1.9167,-1.9167,0,-1.9301,-1.9295,-1.9289,-1.928,-1.9275,-1.9267,-1.9259,-1.9257,-1.9241,-1.9236,-1.9228,-1.9222,-1.9209,-1.92,-1.9188,-1.918,-1.917,-1.9169,-1.9168,-1.9172,-1.9176,-1.9173,-1.9158,-1.9169,-1.9168,-1.9168,-1.9168,-1.9168,-1.9314,-1.9312,-1.9301,-1.9294,-1.9287,-1.9279,-1.9275,-1.9266,-1.9259,-1.9248,-1.924,-1.9232,-1.922,-1.9203,-1.9195,-1.9188,-1.9184,-1.9184,-1.9184,-1.9184,-1.9184,-1.9178,-1.9186,-1.9186,-1.9186,-1.9186,-1.9186,0,-1.9329,-1.9321,-1.9315,-1.9304,-1.9298,-1.929,-1.928,-1.9275,-1.9268,-1.9258,-1.925,-1.924,-1.923,-1.9217,-1.9206,-1.9202,-1.9198,-1.92,-1.92,-1.9198,-1.9189,-1.919,-1.9204,-1.9204,-1.9204,-1.9204,-1.9204,-1.9204,-1.9336,-1.9331,-1.9324,-1.9316,-1.9307,-1.93,-1.9295,-1.9287,-1.9279,-1.9268,-1.926,-1.9251,-1.9239,-1.9227,-1.9218,-1.9214,-1.921,-1.9213,-1.9208,-1.92,-1.9199,-1.9197,-1.9198,-1.9213,-1.9213,-1.9217,-1.9217,-1.9217]},{"header":{"parameterUnit":"m.s-1","parameterCategory":1,"la1":30.2991,"la2":30.254,"lo1":-89.0895,"lo2":-89.0444,"dy":0.0017,"dx":0.0017,"nx":28,"ny":28,"refTime":"2025-01-16T09:00:00:Z","depth":0,"parameterNumber":3,"parameterNumberName":"V-component_of_WINDS"},"data":[0,0,0,0,0,0,0,0,0,0,0,0,0,0,0,0,0,0,0,0,0,0,0,0,0,0,0,0,0,0,0,0,0,0,0,0,0,0,0,0,0,0,0,0,0,0,0,0,0,0,0,0,0,0,0,0,0,0,2.1089,2.109,0,2.115,2.115,2.1151,2.1158,2.1157,2.1156,2.1156,2.1218,2.122,2.1222,0,0,0,0,0,0,0,0,0,0,0,0,0,2.0983,2.0985,2.1089,2.109,2.1091,2.1149,2.115,2.1151,2.1158,2.1157,2.1156,2.1156,2.1217,2.122,2.1223,0,0,0,0,0,0,0,0,0,0,0,0,0,2.1034,2.0985,2.1089,2.1101,2.1103,2.1149,2.115,2.1151,2.1158,2.1157,2.1156,2.1155,2.1216,2.122,2.1223,2.1261,0,0,2.1233,2.1234,0,0,0,0,0,0,0,0,2.1032,2.1038,2.1099,2.1101,2.1102,2.1145,2.1135,2.1188,2.1158,2.1137,2.1156,2.1155,2.1195,2.12,2.1213,2.1264,2.1267,2.1233,2.1235,2.1237,2.1238,0,0,0,0,0,0,0,2.1028,2.1036,2.1113,2.11,2.1102,2.1104,2.1111,2.1145,2.117,2.1139,2.1139,2.1146,2.1195,2.121,2.1214,2.1268,2.1233,2.1236,2.1238,2.124,2.1357,2.1358,0,0,0,0,0,0,2.1022,2.1033,2.1111,2.1115,2.1064,2.1107,2.1114,2.1132,2.117,2.1175,2.1147,2.1147,2.1204,2.121,2.1217,2.1266,2.1237,2.124,2.1242,2.1356,2.1357,2.1359,0,0,0,0,0,0,2.102,2.1029,2.1109,2.1074,2.1085,2.111,2.113,2.1134,2.1148,2.1176,2.1181,2.1157,2.1204,2.1212,2.1251,2.1269,2.1241,2.1244,2.1355,2.1356,2.1358,2.1365,0,0,0,0,0,0,2.1016,2.1028,2.1042,2.1074,2.1086,2.1142,2.1131,2.1136,2.1154,2.1154,2.1187,2.1191,2.1204,2.1246,2.1254,2.1273,2.1247,2.1353,2.1355,2.1357,2.1363,2.1367,2.137,0,0,0,0,0,2.1013,2.1041,2.1043,2.1052,2.1105,2.1143,2.1149,2.1163,2.1155,2.1171,2.1189,2.119,2.1265,2.125,2.1259,2.1279,2.1352,2.1355,2.1357,2.1362,2.1366,2.1369,0,0,0,0,0,0,2.101,2.1046,2.1048,2.1088,2.1112,2.1144,2.1163,2.1167,2.1194,2.1193,2.1209,2.1216,2.1255,2.1271,2.1253,2.132,2.1308,2.1312,2.1308,2.1312,2.1315,2.1312,2.125,0,0,0,0,0,2.1015,2.1042,2.1071,2.1104,2.1116,2.1137,2.1154,2.1163,2.1189,2.1199,2.122,2.1246,2.1276,2.1294,2.1323,2.1365,2.1374,2.1384,2.1387,2.1389,2.1393,2.1419,2.1425,2.1367,2.1367,2.1367,0,0,2.1023,2.1046,2.1062,2.1104,2.1124,2.1153,2.1146,2.1176,2.1199,2.1204,2.1243,2.1259,2.1289,2.133,2.1349,2.1344,2.1411,2.1392,2.1394,2.1397,2.1422,2.1428,2.1433,2.1369,2.1368,2.1368,0,0,2.1055,2.1074,2.1104,2.1125,2.1155,2.1169,2.1177,2.1208,2.1219,2.1258,2.1264,2.1291,2.134,2.1362,2.138,2.1421,2.1425,2.143,2.1447,2.1472,2.1477,2.1481,2.1498,2.1504,2.1434,2.1434,2.1434,0,2.1062,2.1106,2.1119,2.115,2.1169,2.1176,2.1208,2.1227,2.1265,2.1279,2.1272,2.1337,2.1357,2.1405,2.1415,2.1428,2.1438,2.1427,2.1475,2.1479,2.1483,2.15,2.1506,2.1434,2.1434,2.1434,2.1434,0,2.1114,2.1144,2.1165,2.1203,2.1224,2.1255,2.1274,2.1294,2.1302,2.1317,2.1358,2.1383,2.1417,2.1429,2.1436,2.1479,2.1475,2.1471,2.146,2.1489,2.1505,2.1511,2.1435,2.1435,2.1435,2.1435,0,0,2.1146,2.1191,2.1199,2.1217,2.1252,2.1276,2.1308,2.1342,2.136,2.1387,2.1415,2.1458,2.1456,2.1476,2.1485,2.1507,2.1541,2.1501,2.1502,2.151,2.1593,2.1597,2.1603,2.1543,2.1544,2.1545,2.1591,0,2.1183,2.124,2.1254,2.1304,2.1333,2.134,2.1369,2.1394,2.1409,2.1437,2.1454,2.1485,2.1479,2.1491,2.1513,2.1533,2.1559,2.1529,2.1572,2.1573,2.1566,2.1611,2.1615,2.1657,2.1597,2.1598,2.1599,0,2.1233,2.1262,2.1314,2.1348,2.136,2.1385,2.1419,2.1445,2.1474,2.1484,2.1507,2.1515,2.155,2.1537,2.1586,2.1566,2.1584,2.1597,2.1599,2.1604,2.1589,2.162,2.167,2.1677,2.1608,2.1608,2.1607,0,2.1254,2.1305,2.1344,2.1359,2.1398,2.1416,2.1433,2.1461,2.1482,2.1511,2.1525,2.1558,2.1576,2.1602,2.1619,2.1607,2.1669,2.1655,2.1679,2.1679,2.1693,2.1692,2.1749,2.1701,2.1701,2.1701,2.1701,0,2.1295,2.1327,2.1354,2.1378,2.1415,2.1431,2.1468,2.1485,2.1511,2.1539,2.1547,2.1574,2.1594,2.1623,2.1637,2.1678,2.1685,2.1695,2.1699,2.1696,2.1695,2.1709,2.1707,2.1703,2.1703,2.1702,2.1702,0,2.1325,2.1343,2.1387,2.142,2.143,2.1456,2.1485,2.1509,2.1525,2.1562,2.1571,2.1596,2.1632,2.1651,2.1696,2.1705,2.1751,2.1752,2.1741,2.1743,2.1767,2.1765,2.1836,2.1847,2.1791,2.1791,2.1791,0,2.135,2.1375,2.1412,2.1432,2.145,2.1481,2.1502,2.152,2.1542,2.1578,2.1598,2.1634,2.1664,2.1721,2.1744,2.1779,2.1782,2.1804,2.1787,2.1784,2.1785,2.1784,2.1788,2.1808,2.1808,2.1809,2.1809,0,2.1395,2.1403,2.1433,2.1467,2.1493,2.152,2.1548,2.1563,2.1585,2.161,2.1647,2.167,2.1716,2.1753,2.179,2.1808,2.1813,2.1814,2.1822,2.182,2.1814,2.182,2.1752,2.1813,2.1813,2.1812,2.1812,2.1812,2.1425,2.1448,2.1479,2.1513,2.1535,2.1561,2.1586,2.1606,2.1637,2.1676,2.1684,2.1724,2.1754,2.1804,2.1824,2.1856,2.1852,2.1862,2.1865,2.1868,2.1871,2.1807,2.1862,2.1862,2.1862,2.1862,2.1862,0,2.1471,2.1491,2.1522,2.1561,2.1588,2.159,2.1621,2.1644,2.1679,2.1707,2.1737,2.178,2.1816,2.1842,2.1879,2.19,2.1903,2.1909,2.1909,2.1914,2.1871,2.1862,2.1906,2.1906,2.1906,2.1906,2.1906,2.1906,2.1499,2.154,2.1553,2.1606,2.1626,2.1665,2.1683,2.1707,2.173,2.1778,2.1808,2.1825,2.1853,2.1892,2.1926,2.1933,2.1947,2.1953,2.1961,2.1921,2.1916,2.1912,2.1903,2.1956,2.1956,2.2001,2.2001,2.2002]}]]